Wind_Speed
32 31 31 31 31 35 35 32 31 30 28 29 31 30 32 34 36 40 43 44 46 48 49 49 44 48 45 42 37 23 33 27 26 26 21 23 23 21 23 24 24 26 27
32 31 33 32 31 33 31 29 29 27 28 30 32 33 33 33 35 39 41 43 46 47 48 47 44 44 46 43 28 32 26 26 29 28 27 26 24 25 25 26 20 18 27
30 33 33 28 30 30 28 26 27 27 26 28 30 32 32 33 35 39 41 42 45 45 46 44 41 38 35 32 35 37 19 15 19 27 30 26 25 28 31 28 20 16 22
34 36 32 31 30 28 26 25 25 23 25 23 25 27 29 31 33 35 38 41 43 43 42 38 38 32 29 34 34 29 22 19 21 25 30 27 29 33 35 32 20 23 21
29 27 28 28 28 25 24 23 22 22 21 22 24 26 26 27 30 30 35 37 39 40 36 36 36 44 28 36 33 29 23 23 30 32 34 32 32 32 28 25 25 26 22
27 29 29 27 23 24 19 19 16 16 16 16 18 22 24 25 26 30 32 35 38 36 35 35 37 31 33 35 33 35 27 27 31 29 28 30 27 26 36 27 29 29 28
30 29 27 23 23 15 15 13 11 11 13 16 18 21 22 23 28 30 33 36 34 34 32 32 32 30 27 28 34 38 30 33 33 32 25 17 22 32 34 36 35 34 26
29 25 23 18 16 10 10 8 7 11 16 17 18 21 20 25 28 25 28 30 30 29 29 29 29 26 28 20 28 30 29 31 29 28 19 14 17 30 22 26 31 18 15
25 23 18 12 9 9 7 8 10 17 17 16 16 19 23 26 26 26 29 30 30 29 28 27 24 25 29 21 25 30 31 31 24 22 14 12 17 20 16 19 18 16 15
21 17 11 8 7 6 8 10 16 14 18 18 20 24 26 27 25 26 29 29 27 30 27 33 21 26 27 27 23 34 31 25 23 18 10 9 14 13 12 17 15 17 16
19 14 7 6 3 2 7 20 21 19 23 19 22 22 21 21 24 24 29 28 28 25 31 25 29 27 29 26 28 32 24 24 15 6 14 9 10 13 16 13 16 16 15
16 7 4 3 1 5 17 24 20 17 17 22 21 17 19 22 21 27 30 30 29 21 16 17 25 20 20 23 28 23 23 20 9 11 11 9 12 14 13 14 15 16 15
9 2 3 1 6 13 20 22 17 18 19 20 20 19 16 19 24 29 33 33 32 30 14 18 16 20 12 13 31 25 19 17 13 14 14 14 16 15 16 14 16 15 14
5 3 4 5 11 17 22 19 17 20 20 20 19 15 22 19 22 23 30 31 23 18 27 17 20 23 20 20 34 24 22 14 14 15 19 20 17 14 13 14 12 11 13
4 6 6 8 16 20 21 19 20 19 20 20 19 14 13 12 17 20 23 23 17 26 34 21 21 23 28 31 25 20 17 18 17 20 20 15 14 15 12 11 10 11 10
7 8 9 12 18 20 20 18 20 20 20 18 17 16 14 13 13 18 18 17 14 21 25 27 23 19 28 26 25 24 20 20 23 20 16 14 13 10 10 11 9 9 10
10 9 11 15 16 20 18 21 20 21 19 19 19 18 16 16 11 14 16 22 17 20 24 31 22 22 23 23 26 24 19 21 21 20 17 14 8 6 6 6 9 12 15
9 8 9 13 16 14 15 16 21 20 20 20 20 18 13 15 17 14 14 18 17 21 25 26 21 25 22 27 24 29 21 21 23 19 14 10 7 7 6 9 12 15 18
9 9 9 9 12 15 13 14 16 18 21 20 16 14 15 16 12 10 12 12 14 20 19 19 21 23 23 23 24 27 24 25 24 16 7 8 7 8 11 12 15 18 20
9 8 8 9 11 14 13 15 15 17 23 20 18 14 11 11 9 7 12 6 11 14 18 21 24 24 22 27 27 25 24 22 15 10 10 9 11 11 11 15 17 19 23
12 12 11 8 11 11 14 14 15 15 17 19 15 12 10 10 9 9 9 8 11 14 17 22 29 22 24 24 24 21 23 15 11 11 10 10 10 12 13 15 20 24 28
12 12 10 9 9 12 15 17 17 17 18 18 17 14 12 11 9 10 9 12 12 19 17 19 25 25 28 24 26 22 13 11 9 10 10 10 12 13 16 20 24 28 32
14 12 14 9 9 12 12 16 16 16 20 20 18 16 14 13 9 5 12 16 15 17 22 26 21 22 23 22 15 11 11 10 8 9 9 12 14 17 20 25 30 34 37
14 15 18 21 19 17 13 17 18 19 15 12 16 15 14 11 6 12 17 24 24 22 21 19 19 18 13 12 11 8 8 8 7 9 13 17 19 21 25 30 34 37 40
19 20 20 15 14 18 20 19 21 18 18 19 17 17 10 16 15 22 31 27 25 25 20 17 16 12 10 10 10 8 6 8 10 14 18 21 23 25 28 33 37 40 40
18 19 21 23 23 21 23 22 24 23 20 21 21 21 24 27 24 22 21 19 20 15 15 13 12 11 9 7 7 7 7 10 13 17 20 23 27 30 33 38 41 43 43
Wind_Direction
302 298 296 288 278 285 287 284 279 272 265 260 255 250 243 236 231 226 222 219 219 217 217 221 218 211 207 216 202 207 203 208 206 217 221 232 237 254 270 261 227 213 221
304 305 298 286 283 289 286 281 276 270 265 260 257 249 241 233 226 220 219 216 214 214 216 219 215 217 238 244 199 200 193 195 218 225 229 234 240 252 258 253 261 238 238
306 300 295 290 291 289 285 278 273 271 261 258 250 243 236 228 221 215 213 212 210 211 213 216 217 217 229 231 214 212 221 213 224 212 216 235 243 247 251 255 247 232 236
308 302 296 290 289 288 283 276 273 265 262 249 242 232 221 215 211 210 209 205 207 208 211 211 214 217 217 219 229 212 213 204 218 214 225 243 243 248 256 270 229 221 229
309 306 299 291 289 285 279 274 273 267 251 254 238 216 208 203 201 203 201 199 204 202 204 209 209 214 204 208 211 203 205 217 220 218 232 247 251 255 265 243 227 221 222
308 308 300 300 289 280 278 277 271 258 251 235 208 197 192 195 197 189 191 191 194 197 199 205 210 217 203 207 208 201 209 218 216 231 238 240 249 272 263 245 226 225 219
310 309 303 291 287 275 276 271 247 243 215 186 183 187 183 188 183 183 184 186 188 192 198 207 211 216 222 198 204 205 216 225 222 229 236 252 260 264 254 248 240 232 222
309 309 306 296 285 277 268 249 226 201 174 174 180 177 178 176 175 176 178 179 182 189 194 201 208 211 214 214 201 193 209 212 217 225 237 255 279 253 272 265 246 237 243
311 311 312 299 288 271 245 198 193 153 145 158 169 171 164 164 174 171 176 181 184 188 189 195 198 207 210 201 203 200 192 205 207 233 245 258 268 255 274 251 221 234 244
316 320 316 296 289 266 208 193 172 163 179 151 160 157 160 168 169 176 180 182 186 184 189 195 192 205 206 198 189 192 200 215 218 232 286 256 242 257 252 229 227 243 236
323 322 310 310 287 221 187 163 158 153 145 163 155 153 162 170 176 178 176 179 178 190 183 188 189 188 196 196 183 192 200 211 219 255 265 243 240 234 216 220 237 243 230
331 330 311 315 104 120 155 146 149 155 157 150 142 151 159 168 179 175 173 172 181 178 168 185 181 172 188 196 191 183 199 199 205 246 232 213 203 201 217 235 241 238 237
347 3 346 86 116 136 153 143 140 148 148 154 153 164 168 178 183 177 173 183 175 172 155 176 168 172 214 217 201 202 209 193 211 234 209 206 200 210 227 238 237 239 254
42 71 34 117 128 145 151 147 143 146 148 157 152 161 152 176 174 179 182 189 171 183 173 160 155 168 182 195 196 206 200 188 210 220 191 198 205 223 232 238 243 258 274
99 75 78 119 141 151 152 148 143 148 148 154 157 147 140 153 177 185 189 199 244 198 187 182 163 166 174 185 194 186 190 191 209 200 194 201 220 234 240 246 257 267 274
93 79 87 106 145 150 150 150 151 145 151 152 148 144 144 153 168 171 192 201 183 180 172 167 167 169 172 190 188 177 181 195 197 200 188 224 238 245 246 250 263 276 291
77 89 99 117 134 145 148 146 151 153 149 150 149 148 136 155 141 161 162 165 158 158 165 164 174 178 180 184 179 173 182 190 197 201 207 220 215 241 234 252 273 284 295
87 91 106 117 130 140 146 157 155 153 162 159 160 153 156 147 143 133 137 165 167 163 164 182 179 183 167 169 171 188 194 195 204 203 212 206 210 231 259 273 281 294 308
81 92 103 137 147 150 147 158 173 174 167 171 166 167 171 160 153 171 164 144 162 172 169 179 188 184 181 180 173 175 191 202 206 203 192 215 234 258 265 285 307 312 308
84 90 94 120 147 162 152 159 157 168 179 177 174 176 181 167 164 136 164 166 156 175 182 194 183 184 188 181 175 186 196 205 192 190 215 224 243 266 302 309 305 306 307
72 91 80 128 133 152 173 172 162 154 163 173 175 183 183 176 171 176 170 185 169 170 179 171 175 177 172 172 191 199 198 177 184 206 224 252 280 291 296 305 309 312 315
58 70 72 69 129 167 162 157 166 171 167 158 165 166 156 160 170 182 180 193 181 169 171 176 174 179 182 198 204 190 158 185 199 225 254 279 285 302 312 312 312 313 319
65 83 60 57 98 125 148 160 154 158 155 154 152 147 148 139 162 197 203 186 174 161 165 173 176 178 184 189 165 150 185 203 229 264 281 294 309 311 311 314 316 320 318
81 80 62 87 94 82 107 165 158 169 165 163 161 152 145 152 178 163 165 153 150 146 150 156 165 156 141 151 163 177 211 240 268 292 302 304 310 314 319 320 316 310 308
81 78 72 67 81 76 70 104 152 159 168 157 155 163 182 183 157 143 145 152 158 161 151 138 142 143 156 183 196 214 245 273 287 297 305 312 316 317 313 310 310 311 309
83 82 81 77 74 89 88 101 111 114 123 141 137 140 141 138 147 148 149 150 132 135 144 153 161 170 182 193 224 249 262 280 293 303 309 309 308 309 313 313 312 312 310
Height
5741 5739 5737 5734 5732 5730 5728 5726 5725 5725 5725 5726 5728 5731 5736 5740 5745 5751 5757 5763 5772 5780 5787 5795 5805 5814 5817 5818 5822 5826 5831 5835 5840 5845 5847 5851 5853 5854 5855 5856 5856 5858 5861
5736 5732 5729 5727 5725 5722 5720 5718 5718 5717 5716 5718 5720 5723 5727 5732 5737 5743 5750 5757 5764 5773 5781 5789 5799 5806 5803 5805 5816 5823 5827 5832 5837 5841 5844 5847 5849 5851 5851 5852 5851 5853 5855
5729 5726 5722 5720 5718 5714 5712 5711 5710 5709 5708 5709 5711 5714 5719 5724 5729 5735 5742 5750 5759 5768 5776 5784 5794 5801 5805 5809 5814 5819 5823 5829 5832 5835 5837 5841 5844 5847 5847 5846 5848 5850 5853
5722 5718 5715 5712 5709 5707 5705 5703 5702 5701 5701 5702 5704 5707 5712 5717 5723 5730 5737 5746 5754 5763 5773 5782 5789 5797 5801 5803 5808 5814 5820 5823 5829 5833 5834 5837 5840 5842 5842 5843 5845 5846 5849
5716 5713 5709 5706 5702 5700 5698 5697 5696 5695 5696 5697 5698 5702 5708 5714 5720 5726 5734 5742 5751 5761 5771 5778 5784 5785 5795 5800 5805 5811 5815 5821 5825 5829 5831 5835 5837 5839 5839 5840 5840 5842 5844
5712 5708 5703 5699 5696 5694 5692 5692 5691 5691 5691 5692 5695 5700 5706 5711 5717 5723 5731 5740 5748 5758 5767 5773 5778 5783 5791 5796 5802 5808 5814 5820 5823 5825 5828 5831 5833 5834 5834 5836 5836 5837 5839
5706 5701 5696 5692 5690 5688 5688 5687 5686 5687 5689 5690 5695 5700 5705 5710 5716 5722 5730 5738 5748 5756 5764 5771 5776 5782 5787 5793 5800 5806 5811 5817 5819 5823 5827 5829 5830 5830 5831 5831 5831 5831 5834
5700 5695 5690 5687 5685 5685 5685 5684 5685 5686 5688 5691 5697 5701 5705 5711 5717 5725 5732 5741 5747 5755 5763 5770 5774 5779 5784 5789 5797 5803 5810 5812 5816 5821 5824 5825 5826 5827 5830 5830 5832 5837 5837
5695 5690 5685 5683 5682 5681 5682 5683 5685 5687 5690 5694 5699 5702 5707 5714 5720 5725 5733 5740 5747 5755 5761 5768 5774 5779 5783 5789 5794 5801 5804 5809 5814 5819 5821 5822 5825 5827 5826 5829 5831 5833 5834
5691 5686 5683 5681 5680 5680 5680 5682 5686 5688 5691 5696 5700 5704 5708 5714 5721 5727 5733 5740 5747 5753 5760 5763 5758 5779 5783 5786 5792 5797 5802 5807 5812 5816 5817 5819 5821 5822 5824 5826 5829 5831 5832
5688 5683 5682 5681 5680 5679 5678 5683 5688 5691 5694 5697 5702 5707 5712 5717 5721 5726 5733 5740 5747 5752 5757 5761 5766 5773 5780 5784 5788 5795 5800 5805 5810 5811 5814 5816 5817 5820 5823 5825 5826 5828 5829
5685 5682 5682 5681 5680 5679 5681 5685 5690 5693 5697 5702 5706 5709 5714 5718 5723 5728 5733 5740 5745 5750 5756 5761 5767 5771 5777 5782 5788 5794 5799 5802 5806 5810 5812 5814 5816 5819 5821 5823 5825 5828 5828
5684 5683 5682 5682 5682 5682 5686 5688 5692 5696 5700 5704 5707 5712 5715 5720 5723 5728 5734 5737 5740 5745 5755 5763 5766 5770 5774 5780 5785 5791 5797 5800 5805 5809 5810 5813 5816 5818 5821 5822 5825 5826 5827
5685 5684 5683 5683 5684 5686 5689 5692 5695 5699 5702 5706 5710 5715 5717 5722 5726 5732 5737 5739 5741 5747 5756 5761 5766 5770 5775 5780 5786 5792 5795 5799 5804 5807 5811 5813 5815 5818 5818 5821 5823 5824 5826
5686 5686 5685 5685 5687 5689 5692 5695 5698 5701 5704 5708 5713 5718 5721 5725 5729 5733 5738 5742 5745 5747 5752 5761 5766 5770 5775 5780 5786 5790 5794 5799 5804 5808 5811 5813 5814 5817 5818 5819 5819 5823 5823
5689 5689 5688 5689 5690 5693 5696 5699 5702 5704 5707 5712 5716 5720 5723 5726 5730 5734 5739 5741 5743 5747 5752 5759 5767 5772 5776 5779 5783 5790 5795 5799 5803 5806 5809 5811 5814 5814 5816 5818 5820 5821 5821
5693 5692 5692 5693 5695 5697 5699 5702 5705 5708 5711 5715 5719 5723 5726 5728 5732 5734 5738 5741 5744 5749 5754 5760 5767 5771 5775 5778 5784 5790 5794 5798 5802 5805 5807 5809 5811 5814 5815 5817 5820 5820 5820
5697 5697 5697 5698 5699 5702 5704 5706 5708 5711 5714 5717 5721 5725 5729 5731 5735 5739 5741 5744 5747 5752 5757 5762 5765 5770 5776 5779 5785 5790 5795 5799 5801 5804 5807 5809 5811 5812 5815 5816 5816 5817 5815
5701 5701 5701 5702 5703 5704 5706 5709 5711 5714 5717 5721 5725 5728 5731 5734 5738 5741 5745 5747 5750 5755 5759 5763 5766 5771 5776 5781 5785 5790 5794 5797 5800 5803 5805 5807 5809 5812 5812 5812 5813 5810 5810
5704 5704 5705 5705 5706 5707 5709 5711 5714 5716 5720 5724 5728 5730 5733 5737 5739 5743 5746 5749 5752 5755 5758 5762 5767 5771 5776 5781 5785 5790 5793 5796 5799 5803 5805 5807 5809 5810 5810 5810 5809 5806 5804
5708 5708 5707 5707 5708 5709 5710 5713 5715 5718 5721 5726 5730 5732 5735 5738 5741 5744 5747 5751 5753 5755 5759 5761 5767 5773 5777 5781 5786 5789 5793 5796 5800 5803 5804 5807 5808 5809 5807 5804 5803 5803 5800
5712 5711 5710 5709 5708 5710 5712 5714 5716 5720 5723 5727 5732 5735 5737 5739 5741 5744 5748 5750 5754 5757 5760 5765 5770 5774 5778 5783 5785 5790 5793 5797 5800 5802 5805 5805 5805 5802 5803 5800 5799 5796 5790
5716 5715 5713 5711 5709 5710 5713 5715 5718 5721 5725 5728 5732 5736 5738 5740 5743 5745 5748 5750 5754 5758 5762 5767 5770 5775 5779 5783 5786 5791 5795 5798 5800 5802 5803 5801 5800 5798 5797 5795 5791 5786 5781
5721 5720 5718 5715 5715 5715 5714 5715 5719 5724 5727 5730 5733 5737 5740 5743 5746 5747 5749 5753 5757 5762 5766 5771 5774 5776 5779 5785 5789 5793 5796 5798 5798 5798 5799 5797 5796 5794 5791 5786 5782 5779 5775
5725 5725 5724 5723 5722 5721 5720 5717 5722 5727 5730 5734 5736 5739 5742 5745 5749 5752 5755 5758 5763 5766 5770 5774 5778 5782 5786 5790 5792 5794 5795 5795 5795 5795 5794 5791 5789 5787 5785 5780 5776 5772 5766
5731 5731 5730 5729 5729 5728 5728 5729 5730 5732 5735 5738 5742 5745 5747 5750 5754 5757 5760 5763 5767 5771 5775 5779 5783 5785 5788 5789 5790 5792 5793 5793 5791 5790 5789 5786 5783 5780 5776 5771 5766 5759 5754